Tiempo cada hora Aller

Hoy, 31 Julio, Sábado

Tiempo Temperatura Precipitaciones Viento Presión Humedad
00:00 +11°C° 0 mm 1 mps 674 mmHg 97%
01:00 +9°C° 0.3 mm 2 mps 673 mmHg 97%
02:00 +9°C° 0.3 mm 2 mps 673 mmHg 97%
03:00 +9°C° 0.3 mm 2 mps 673 mmHg 97%
04:00 +9°C° 0.3 mm 2 mps 673 mmHg 97%
05:00 +10°C° 0.3 mm 1 mps 673 mmHg 97%
06:00 +10°C° 0 mm 1 mps 673 mmHg 97%
07:00 +10°C° 0.1 mm 1 mps 673 mmHg 93%
08:00 +9°C° 0.1 mm 2 mps 674 mmHg 90%
09:00 +10°C° 0.1 mm 2 mps 674 mmHg 86%
10:00 +12°C° 0.1 mm 2 mps 674 mmHg 78%
11:00 +14°C° 0.1 mm 2 mps 674 mmHg 69%
12:00 +14°C° 0.1 mm 3 mps 675 mmHg 61%
13:00 +14°C° 0.2 mm 3 mps 675 mmHg 63%
14:00 +14°C° 0.2 mm 3 mps 675 mmHg 65%
15:00 +14°C° 0.2 mm 3 mps 675 mmHg 67%
16:00 +13°C° 0.1 mm 3 mps 674 mmHg 72%
17:00 +13°C° 0.1 mm 2 mps 674 mmHg 78%
18:00 +12°C° 0.1 mm 2 mps 674 mmHg 83%
19:00 +10°C° 0.1 mm 2 mps 674 mmHg 86%
20:00 +11°C° 0.1 mm 1 mps 674 mmHg 89%
21:00 +10°C° 0.1 mm 1 mps 674 mmHg 92%
22:00 +10°C° 0 mm 1 mps 674 mmHg 92%
23:00 +9°C° 0 mm 1 mps 674 mmHg 93%

Mañana, 1 Agosto, Domingo

Tiempo Temperatura Precipitaciones Viento Presión Humedad
00:00 +9°C° 0 mm 1 mps 674 mmHg 93%
01:00 +8°C° 0 mm 1 mps 673 mmHg 93%
02:00 +8°C° 0 mm 1 mps 673 mmHg 94%
03:00 +7°C° 0 mm 1 mps 673 mmHg 94%
04:00 +7°C° 0 mm 1 mps 673 mmHg 92%
05:00 +7°C° 0 mm 1 mps 673 mmHg 90%
06:00 +7°C° 0 mm 1 mps 673 mmHg 89%
07:00 +10°C° 0 mm 1 mps 674 mmHg 75%
08:00 +12°C° 0 mm 1 mps 674 mmHg 62%
09:00 +14°C° 0 mm 0 mps 674 mmHg 48%
10:00 +16°C° 0 mm 1 mps 675 mmHg 46%
11:00 +17°C° 0 mm 2 mps 675 mmHg 44%
12:00 +19°C° 0 mm 2 mps 675 mmHg 42%
13:00 +18°C° 0 mm 3 mps 675 mmHg 45%
14:00 +18°C° 0 mm 3 mps 674 mmHg 47%
15:00 +18°C° 0 mm 3 mps 674 mmHg 50%
16:00 +17°C° 0 mm 3 mps 674 mmHg 56%
17:00 +16°C° 0 mm 3 mps 674 mmHg 61%
18:00 +15°C° 0 mm 2 mps 674 mmHg 67%
19:00 +14°C° 0 mm 2 mps 674 mmHg 76%
20:00 +12°C° 0 mm 1 mps 674 mmHg 85%
21:00 +11°C° 0 mm 1 mps 674 mmHg 94%
22:00 +10°C° 0 mm 1 mps 674 mmHg 94%
23:00 +10°C° 0 mm 1 mps 674 mmHg 94%

Pasado mañana, 2 Agosto, Lunes

Tiempo Temperatura Precipitaciones Viento Presión Humedad
00:00 +10°C° 0 mm 1 mps 673 mmHg 93%
01:00 +10°C° 0 mm 1 mps 673 mmHg 94%
02:00 +10°C° 0 mm 1 mps 673 mmHg 94%
03:00 +10°C° 0 mm 1 mps 673 mmHg 94%
04:00 +10°C° 0 mm 1 mps 673 mmHg 93%
05:00 +10°C° 0 mm 1 mps 673 mmHg 92%
06:00 +9°C° 0 mm 0 mps 673 mmHg 91%
07:00 +12°C° 0 mm 1 mps 674 mmHg 81%
08:00 +14°C° 0 mm 1 mps 674 mmHg 70%
09:00 +18°C° 0 mm 1 mps 675 mmHg 60%
10:00 +18°C° 0 mm 2 mps 675 mmHg 55%
11:00 +19°C° 0 mm 2 mps 675 mmHg 51%
12:00 +20°C° 0 mm 2 mps 675 mmHg 47%
13:00 +20°C° 0 mm 3 mps 675 mmHg 49%
14:00 +20°C° 0 mm 3 mps 675 mmHg 50%
15:00 +20°C° 0 mm 3 mps 675 mmHg 52%
16:00 +18°C° 0 mm 3 mps 675 mmHg 59%
17:00 +17°C° 0 mm 3 mps 675 mmHg 65%
18:00 +16°C° 0 mm 2 mps 675 mmHg 72%
19:00 +14°C° 0 mm 2 mps 675 mmHg 79%
20:00 +13°C° 0 mm 1 mps 675 mmHg 87%
21:00 +11°C° 0 mm 1 mps 675 mmHg 94%
22:00 +11°C° 0 mm 1 mps 675 mmHg 94%
23:00 +11°C° 0 mm 1 mps 674 mmHg 94%

3 Agosto, Martes

Tiempo Temperatura Precipitaciones Viento Presión Humedad
00:00 +10°C° 0 mm 1 mps 674 mmHg 94%
01:00 +10°C° 0 mm 1 mps 674 mmHg 92%
02:00 +10°C° 0 mm 1 mps 674 mmHg 91%
03:00 +10°C° 0 mm 1 mps 673 mmHg 89%
04:00 +11°C° 0 mm 1 mps 673 mmHg 88%
05:00 +11°C° 0 mm 1 mps 673 mmHg 86%
06:00 +11°C° 0 mm 1 mps 673 mmHg 84%
07:00 +14°C° 0 mm 1 mps 674 mmHg 74%
08:00 +16°C° 0 mm 1 mps 674 mmHg 64%
09:00 +19°C° 0 mm 1 mps 674 mmHg 55%
10:00 +21°C° 0 mm 1 mps 675 mmHg 50%
11:00 +21°C° 0 mm 2 mps 675 mmHg 45%
12:00 +23°C° 0 mm 2 mps 675 mmHg 41%
13:00 +23°C° 0 mm 2 mps 675 mmHg 44%
14:00 +21°C° 0 mm 3 mps 674 mmHg 47%
15:00 +21°C° 0 mm 3 mps 674 mmHg 50%
16:00 +20°C° 0 mm 2 mps 674 mmHg 56%
17:00 +19°C° 0 mm 2 mps 674 mmHg 62%
18:00 +19°C° 0 mm 1 mps 674 mmHg 67%
19:00 +16°C° 0 mm 1 mps 674 mmHg 76%
20:00 +14°C° 0 mm 1 mps 674 mmHg 84%
21:00 +12°C° 0 mm 1 mps 674 mmHg 92%
22:00 +12°C° 0 mm 1 mps 674 mmHg 92%
23:00 +12°C° 0 mm 1 mps 674 mmHg 93%

4 Agosto, Miércoles

Tiempo Temperatura Precipitaciones Viento Presión Humedad
00:00 +11°C° 0 mm 1 mps 674 mmHg 93%
01:00 +11°C° 0 mm 1 mps 674 mmHg 93%
02:00 +11°C° 0 mm 1 mps 674 mmHg 93%
03:00 +11°C° 0 mm 1 mps 674 mmHg 94%
04:00 +11°C° 0 mm 1 mps 674 mmHg 93%
05:00 +11°C° 0 mm 1 mps 674 mmHg 92%
06:00 +11°C° 0 mm 1 mps 675 mmHg 92%
07:00 +13°C° 0 mm 1 mps 675 mmHg 81%
08:00 +15°C° 0 mm 1 mps 676 mmHg 70%
09:00 +18°C° 0 mm 1 mps 676 mmHg 59%
10:00 +19°C° 0 mm 1 mps 677 mmHg 52%
11:00 +20°C° 0 mm 2 mps 677 mmHg 45%
12:00 +21°C° 0 mm 2 mps 677 mmHg 38%
13:00 +21°C° 0 mm 3 mps 677 mmHg 39%
14:00 +22°C° 0 mm 3 mps 677 mmHg 40%
15:00 +22°C° 0 mm 3 mps 677 mmHg 42%
16:00 +20°C° 0 mm 3 mps 677 mmHg 49%
17:00 +19°C° 0 mm 3 mps 676 mmHg 57%
18:00 +17°C° 0 mm 2 mps 676 mmHg 65%
19:00 +15°C° 0 mm 2 mps 676 mmHg 74%
20:00 +13°C° 0 mm 2 mps 676 mmHg 84%
21:00 +11°C° 0 mm 1 mps 675 mmHg 94%
22:00 +11°C° 0 mm 1 mps 675 mmHg 91%
23:00 +11°C° 0 mm 1 mps 675 mmHg 87%

5 Agosto, Jueves

Tiempo Temperatura Precipitaciones Viento Presión Humedad
00:00 +12°C° 0 mm 1 mps 675 mmHg 83%
01:00 +12°C° 0 mm 1 mps 674 mmHg 78%
02:00 +12°C° 0 mm 1 mps 674 mmHg 72%
03:00 +12°C° 0 mm 1 mps 674 mmHg 66%
04:00 +13°C° 0 mm 1 mps 674 mmHg 62%
05:00 +14°C° 0 mm 1 mps 674 mmHg 58%
06:00 +14°C° 0 mm 1 mps 674 mmHg 54%
07:00 +16°C° 0 mm 1 mps 674 mmHg 54%
08:00 +19°C° 0 mm 1 mps 675 mmHg 54%
09:00 +20°C° 0 mm 1 mps 675 mmHg 54%
10:00 +20°C° 0 mm 2 mps 675 mmHg 50%
11:00 +22°C° 0 mm 3 mps 675 mmHg 45%
12:00 +23°C° 0 mm 4 mps 675 mmHg 41%
13:00 +22°C° 0 mm 4 mps 675 mmHg 44%
14:00 +22°C° 0 mm 4 mps 675 mmHg 46%
15:00 +22°C° 0 mm 4 mps 675 mmHg 49%
16:00 +20°C° 0 mm 4 mps 675 mmHg 56%
17:00 +18°C° 0 mm 3 mps 675 mmHg 64%
18:00 +17°C° 0 mm 3 mps 674 mmHg 72%
19:00 +16°C° 0 mm 2 mps 674 mmHg 78%
20:00 +14°C° 0 mm 2 mps 675 mmHg 84%
21:00 +13°C° 0 mm 1 mps 675 mmHg 91%
22:00 +13°C° 0 mm 1 mps 674 mmHg 90%
23:00 +12°C° 0 mm 1 mps 674 mmHg 90%
Mostrar más

Necesitamos Su Consentimiento

Meteoprog y nuestros Proveedores de Servicios pueden almacenar y acceder a sus datos personales como cookies, identificadores de dispositivo u otras tecnologías similares de su dispositivo y procesar dichos datos para personalizar contenido y anuncios, además de ofrecer funciones de redes sociales y analizar el tráfico.

  • Almacenar y/o acceder a información en su dispositivo

    Se puede almacenar o acceder a cookies, identificadores de dispositivo u otra información de su dispositivo para los fines anteriormente indicados.

  • Anuncios y contenido personalizados, medición de anuncios y contenido, percepciones del público, y desarrollo de productos

    Los anuncios y el contenido pueden personalizarse en base a su perfil. Se pueden añadir más datos para personalizar mejor los anuncios y contenidos. Se puede medir el rendimiento de los anuncios y contenidos. Se puede obtener la percepción sobre el público que ha visto los anuncios y contenidos. Dichos datos pueden usarse para desarrollar o mejorar la experiencia del usuario, sistemas y software.

Al hacer clic en ‘Estoy De Acuerdo’ usted permitirá el uso de las cookies, identificadores de dispositivo, balizas web u otras tecnologías similares indicadas. Su configuración puede cambiarse desde el navegador de su dispositivo.

Para ciertos fines, los intereses legítimos pueden ser considerados por encima del consentimiento. Puede leer más sobre ello en nuestra Política de Privacidad y Cookies.